YBBN

Brisbane Airport

Airport
ICAO code
YBBN
IATA Code
BNE
Summary
ICAO Region
APAC
ICAO Territory
Location

Brisbane, Queensland

Serving
Brisbane
Elevation
13 ft
Coordinates
27° 23' 30" S , 153° 7' 21" E
KCC
Metar
YBBN 172330Z 21009KT 9999 FEW030 21/15 Q1017

Description

Serves the city of Brisbane and the surrounding metropolitan area.

Climatology

Humid “subtropical” climate (Köppen climate classification Cfa) - characterized by hot, humid summers and cool winters. Significant amounts of precipitation occur in all seasons in most areas. Most summer rainfall occurs during thunderstorms and occasional tropical storms.

SKYbrary Partners:

Safety knowledge contributed by: